[[{"header":{"parameterUnit":"m.s-1","parameterCategory":2,"la1":30.2992,"la2":30.254,"lo1":-89.0895,"lo2":-89.0443,"dy":0.0025,"dx":0.0025,"nx":19,"ny":19,"refTime":"2026-05-08T03:00:00:Z","depth":"0","parameterNumber":2,"parameterNumberName":"U-component_of_CURRENTS"},"data":[0,0,0,0.0602,0.0603,0.0646,0.0647,0.068,0.068,0,0,0,0,0,0,0,0,0,0,0,0.0582,0.0582,0.0602,0.0603,0.0646,0.0647,0.068,0.068,0,0,0,0,0,0,0,0,0,0,0,0.0582,0.0582,0.0583,0.0603,0.0646,0.0647,0.068,0.0651,0,0,0,0,0,0,0,0,0,0,0.0612,0.0593,0.0582,0.0583,0.0603,0.0646,0.0647,0.065,0.0653,0.0655,0,0.0663,0,0.0676,0.0682,0.0682,0,0,0,0.0599,0.0591,0.0609,0.0583,0.0604,0.0646,0.0626,0.0652,0.0655,0.0658,0.0663,0.0665,0.0676,0.0682,0.0682,0.0773,0.0774,0,0,0.0597,0.0584,0.0607,0.0611,0.0616,0.0624,0.0627,0.0654,0.0654,0.0663,0.0666,0.0677,0.0682,0.0683,0.0773,0.0774,0,0,0,0.0592,0.0582,0.06,0.0609,0.0621,0.0626,0.0629,0.0652,0.066,0.0666,0.0677,0.0683,0.0683,0.0772,0.0773,0.0781,0,0,0,0.0591,0.058,0.0598,0.059,0.0621,0.064,0.0626,0.0658,0.0662,0.0677,0.0683,0.0683,0.0771,0.0772,0.0779,0.0748,0,0,0,0.058,0.0579,0.0586,0.059,0.0612,0.064,0.0649,0.0659,0.0669,0.0682,0.0683,0.077,0.0772,0.0777,0.0746,0.0809,0,0,0,0.0563,0.0573,0.0585,0.0604,0.0611,0.0658,0.0649,0.0677,0.0691,0.0683,0.0771,0.0773,0.0776,0.0745,0.0807,0.0989,0.1012,0,0,0.0567,0.0573,0.0587,0.0599,0.0644,0.0652,0.0701,0.071,0.0722,0.0757,0.076,0.0779,0.0746,0.0809,0.1094,0.1114,0,0,0,0.0583,0.0595,0.0611,0.0639,0.0672,0.0701,0.0727,0.0746,0.0786,0.074,0.0814,0.0793,0.0832,0.094,0.0956,0.1171,0.0781,0.0781,0.0781,0.0566,0.0597,0.0626,0.0669,0.0696,0.0744,0.0766,0.0802,0.0816,0.0848,0.0827,0.0911,0.1028,0.1042,0.1261,0.0877,0.0877,0.0877,0.0878,0.0584,0.0605,0.0638,0.0675,0.071,0.0749,0.0804,0.0824,0.0885,0.0876,0.0916,0.0976,0.106,0.1288,0.0879,0.0878,0.0878,0.0878,0.0878,0.0585,0.0597,0.0621,0.0661,0.069,0.0735,0.0791,0.0822,0.088,0.0903,0.1075,0.1077,0.1254,0.0956,0.0956,0.0957,0.0957,0.0957,0.0957,0.0569,0.0596,0.0604,0.064,0.0643,0.0688,0.0779,0.0861,0.1024,0.1088,0.1091,0.134,0.0935,0.0905,0.096,0.0959,0.0959,0.0959,0.0958,0.0575,0.0569,0.058,0.0579,0.0611,0.0674,0.0781,0.1065,0.1169,0.1294,0.1601,0.1215,0.1231,0.1221,0.12,0.1327,0.1327,0.1327,0.1327,0.0557,0.0562,0.0559,0.0553,0.0593,0.0665,0.0898,0.1164,0.159,0.1829,0.1872,0.1931,0.1906,0.1963,0.1936,0.193,0.2239,0.224,0.2242,0.0547,0.0543,0.054,0.0547,0.0578,0.0702,0.0916,0.1239,0.1939,0.2292,0.2136,0.2098,0.219,0.2133,0.2219,0.2165,0.2151,0,0]},{"header":{"parameterUnit":"m.s-1","parameterCategory":2,"la1":30.2992,"la2":30.254,"lo1":-89.0895,"lo2":-89.0443,"dy":0.0025,"dx":0.0025,"nx":19,"ny":19,"refTime":"2026-05-08T03:00:00:Z","depth":"0","parameterNumber":3,"parameterNumberName":"V-component_of_CURRENTS"},"data":[0,0,0,-0.0261,-0.0262,-0.0297,-0.0297,-0.0353,-0.0354,0,0,0,0,0,0,0,0,0,0,0,-0.0248,-0.0248,-0.0261,-0.0262,-0.0297,-0.0297,-0.0353,-0.0354,0,0,0,0,0,0,0,0,0,0,0,-0.0248,-0.0248,-0.0248,-0.0262,-0.0297,-0.0297,-0.0353,-0.0325,0,0,0,0,0,0,0,0,0,0,-0.029,-0.0272,-0.0248,-0.0248,-0.0262,-0.0297,-0.0297,-0.0324,-0.0327,-0.0339,0,-0.0341,0,-0.0347,-0.0357,-0.0358,0,0,0,-0.0267,-0.027,-0.028,-0.0248,-0.0262,-0.0297,-0.0283,-0.0325,-0.0329,-0.0343,-0.0341,-0.0343,-0.0348,-0.0358,-0.0358,-0.0393,-0.0393,0,0,-0.0265,-0.0255,-0.0278,-0.0282,-0.0267,-0.0281,-0.0284,-0.0327,-0.0329,-0.0342,-0.0345,-0.0349,-0.0358,-0.0358,-0.0393,-0.0393,0,0,0,-0.0256,-0.0254,-0.0263,-0.028,-0.0285,-0.0282,-0.0285,-0.0327,-0.033,-0.0345,-0.035,-0.0358,-0.0359,-0.0393,-0.0393,-0.0457,0,0,0,-0.0255,-0.0248,-0.0262,-0.0257,-0.0284,-0.0304,-0.0283,-0.0327,-0.0332,-0.0349,-0.0358,-0.0359,-0.0393,-0.0393,-0.0455,-0.047,0,0,0,-0.0247,-0.0248,-0.025,-0.0257,-0.027,-0.0304,-0.031,-0.0328,-0.0335,-0.0358,-0.036,-0.0393,-0.0393,-0.0454,-0.0468,-0.0372,0,0,0,-0.0238,-0.0226,-0.025,-0.0239,-0.0269,-0.0282,-0.031,-0.0313,-0.0327,-0.0359,-0.0393,-0.0393,-0.0453,-0.0466,-0.0372,0.0009,0.0041,0,0,-0.0214,-0.0223,-0.0216,-0.0238,-0.0256,-0.0278,-0.0313,-0.0337,-0.0335,-0.038,-0.0381,-0.0456,-0.0467,-0.0372,0.0011,0.0044,0,0,0,-0.0203,-0.0213,-0.0216,-0.0238,-0.0249,-0.0311,-0.0326,-0.0352,-0.0398,-0.0343,-0.0437,-0.0441,-0.0378,-0.0149,-0.0124,-0.0149,-0.0392,-0.0392,-0.0392,-0.0183,-0.0203,-0.0224,-0.0265,-0.0282,-0.0332,-0.0378,-0.042,-0.0409,-0.0435,-0.0481,-0.0435,-0.0194,-0.017,-0.0204,-0.0471,-0.0471,-0.0472,-0.0472,-0.0202,-0.0237,-0.0273,-0.0307,-0.0363,-0.0408,-0.0472,-0.0487,-0.0506,-0.0524,-0.0458,-0.0214,-0.0144,-0.0191,-0.0476,-0.0475,-0.0475,-0.0474,-0.0474,-0.023,-0.0256,-0.0282,-0.0356,-0.0414,-0.0461,-0.0381,-0.0484,-0.0536,-0.0529,-0.0154,-0.0147,-0.019,-0.0444,-0.0444,-0.0444,-0.0443,-0.0443,-0.0443,-0.0261,-0.0291,-0.0323,-0.0398,-0.0391,-0.0347,-0.032,-0.022,-0.0137,-0.0161,-0.0156,-0.0144,-0.0424,-0.0427,-0.0438,-0.0439,-0.0439,-0.044,-0.044,-0.0302,-0.0318,-0.0332,-0.032,-0.0198,0.0125,0.0109,0.045,0.0435,0.0547,0.0278,0.0073,0.0158,0.0144,0.0157,0.0298,0.0298,0.0298,0.0298,-0.0319,-0.0339,-0.0243,-0.01,0.0147,0.0394,0.1014,0.1152,0.0947,0.0796,0.0552,0.0588,0.056,0.0663,0.0636,0.0657,0.0921,0.0921,0.0921,-0.0335,-0.03,-0.0148,0.0031,0.0375,0.0871,0.1511,0.1733,0.13,0.092,0.0424,0.0398,0.0408,0.0366,0.0493,0.0458,0.048,0,0]}],[{"header":{"parameterUnit":"m.s-1","parameterCategory":2,"la1":30.2992,"la2":30.254,"lo1":-89.0895,"lo2":-89.0443,"dy":0.0025,"dx":0.0025,"nx":19,"ny":19,"refTime":"2026-05-08T03:00:00:Z","depth":"2","parameterNumber":2,"parameterNumberName":"U-component_of_CURRENTS"},"data":[0,0,0,0.0737,0.0738,0.0783,0.0783,0.082,0.0821,0,0,0,0,0,0,0,0,0,0,0,0.0718,0.0718,0.0737,0.0739,0.0783,0.0783,0.082,0.0821,0,0,0,0,0,0,0,0,0,0,0,0.0718,0.0718,0.0718,0.0739,0.0783,0.0783,0.082,0.0791,0,0,0,0,0,0,0,0,0,0,0.075,0.0732,0.0718,0.0718,0.0739,0.0783,0.0783,0.0789,0.0793,0.0796,0,0.0804,0,0.0816,0.0823,0.0823,0,0,0,0.0735,0.0729,0.0747,0.0718,0.0739,0.0783,0.0762,0.0791,0.0795,0.08,0.0804,0.0806,0.0817,0.0823,0.0823,0.0922,0.0923,0,0,0.0733,0.0721,0.0744,0.0749,0.0752,0.0761,0.0763,0.0794,0.0794,0.0804,0.0807,0.0818,0.0823,0.0824,0.0921,0.0922,0,0,0,0.0728,0.0719,0.0736,0.0747,0.0759,0.0762,0.0765,0.0793,0.08,0.0808,0.0818,0.0824,0.0824,0.0921,0.0922,0.0936,0,0,0,0.0726,0.0717,0.0734,0.0727,0.0758,0.0778,0.0763,0.0797,0.0802,0.0818,0.0824,0.0824,0.092,0.0921,0.0934,0.0907,0,0,0,0.0716,0.0715,0.0722,0.0726,0.0749,0.0778,0.0787,0.0799,0.0808,0.0823,0.0825,0.0919,0.0921,0.0932,0.0905,0.0978,0,0,0,0.07,0.0712,0.0722,0.0744,0.0748,0.0798,0.0787,0.0818,0.0833,0.0824,0.092,0.0922,0.0931,0.0904,0.0976,0.1124,0.1146,0,0,0.0708,0.0713,0.0729,0.0739,0.0786,0.0792,0.0846,0.0856,0.0866,0.0905,0.0908,0.0934,0.0905,0.0978,0.1236,0.1255,0,0,0,0.0727,0.0738,0.0755,0.0784,0.0819,0.0851,0.0875,0.0895,0.0937,0.0886,0.097,0.0951,0.0997,0.1083,0.1099,0.0931,0.0931,0.093,0.093,0.0714,0.0745,0.0776,0.0819,0.0849,0.0901,0.0931,0.0966,0.0973,0.1007,0.0991,0.1087,0.1182,0.1194,0.1041,0.1041,0.1041,0.1041,0.1041,0.0734,0.0755,0.079,0.0829,0.0869,0.091,0.0976,0.0996,0.1067,0.1045,0.1091,0.1127,0.1212,0.1043,0.1043,0.1042,0.1042,0.1042,0.1042,0.0733,0.0745,0.0771,0.0814,0.085,0.0899,0.0981,0.101,0.1067,0.1101,0.1245,0.1247,0.1082,0.1151,0.1152,0.1152,0.1152,0.1152,0.1152,0.0714,0.0744,0.0753,0.0792,0.0806,0.087,0.0973,0.1069,0.1213,0.1264,0.1267,0.1125,0.1121,0.109,0.1156,0.1155,0.1155,0.1155,0.1154,0.0714,0.071,0.0727,0.0738,0.0819,0.0946,0.1025,0.1296,0.1392,0.1502,0.139,0.1383,0.1395,0.1385,0.1362,0.1494,0.1494,0.1494,0.1494,0.069,0.0696,0.0723,0.0763,0.0864,0.0994,0.1237,0.1358,0.1485,0.1483,0.1482,0.1471,0.1461,0.1473,0.1461,0.1437,0.1588,0.1587,0.1587,0.0675,0.0683,0.0714,0.0782,0.0894,0.1124,0.1307,0.1336,0.1449,0.1574,0.1331,0.1533,0.1517,0.15,0.1517,0.1497,0.1458,0,0]},{"header":{"parameterUnit":"m.s-1","parameterCategory":2,"la1":30.2992,"la2":30.254,"lo1":-89.0895,"lo2":-89.0443,"dy":0.0025,"dx":0.0025,"nx":19,"ny":19,"refTime":"2026-05-08T03:00:00:Z","depth":"2","parameterNumber":3,"parameterNumberName":"V-component_of_CURRENTS"},"data":[0,0,0,-0.0254,-0.0255,-0.0299,-0.0299,-0.0372,-0.0372,0,0,0,0,0,0,0,0,0,0,0,-0.0238,-0.0238,-0.0254,-0.0255,-0.0299,-0.0299,-0.0371,-0.0372,0,0,0,0,0,0,0,0,0,0,0,-0.0238,-0.0238,-0.0238,-0.0255,-0.0299,-0.0299,-0.0371,-0.0335,0,0,0,0,0,0,0,0,0,0,-0.0291,-0.027,-0.0238,-0.0238,-0.0255,-0.0298,-0.0299,-0.0334,-0.0338,-0.0355,0,-0.0357,0,-0.0365,-0.0377,-0.0377,0,0,0,-0.0261,-0.0267,-0.028,-0.0238,-0.0255,-0.0298,-0.028,-0.0336,-0.034,-0.036,-0.0358,-0.0361,-0.0366,-0.0377,-0.0378,-0.042,-0.042,0,0,-0.0258,-0.0247,-0.0276,-0.0282,-0.0262,-0.0279,-0.0282,-0.0339,-0.0341,-0.0359,-0.0363,-0.0367,-0.0378,-0.0378,-0.042,-0.042,0,0,0,-0.0247,-0.0246,-0.0257,-0.028,-0.0285,-0.028,-0.0283,-0.0339,-0.0343,-0.0364,-0.0368,-0.0378,-0.0379,-0.042,-0.042,-0.0462,0,0,0,-0.0246,-0.0239,-0.0256,-0.025,-0.0284,-0.031,-0.0282,-0.0339,-0.0345,-0.0368,-0.0378,-0.038,-0.042,-0.042,-0.0461,-0.0467,0,0,0,-0.0237,-0.0238,-0.0242,-0.0249,-0.0266,-0.0309,-0.0316,-0.034,-0.0348,-0.0377,-0.038,-0.042,-0.042,-0.046,-0.0466,-0.0404,0,0,0,-0.0227,-0.022,-0.0241,-0.0236,-0.0265,-0.0283,-0.0316,-0.033,-0.035,-0.0379,-0.042,-0.042,-0.046,-0.0465,-0.0404,-0.0341,-0.0334,0,0,-0.021,-0.0218,-0.0214,-0.0234,-0.025,-0.0278,-0.0311,-0.0348,-0.0356,-0.0404,-0.0405,-0.0461,-0.0466,-0.0404,-0.0332,-0.0325,0,0,0,-0.0203,-0.0209,-0.0213,-0.0232,-0.0248,-0.0299,-0.033,-0.0357,-0.0405,-0.0367,-0.0446,-0.0447,-0.0406,-0.0369,-0.0364,-0.0419,-0.0419,-0.0419,-0.0419,-0.0182,-0.0199,-0.0215,-0.0248,-0.0267,-0.0316,-0.0356,-0.0401,-0.0409,-0.0433,-0.0471,-0.0438,-0.0401,-0.0396,-0.0464,-0.0464,-0.0464,-0.0464,-0.0464,-0.019,-0.0214,-0.0245,-0.0273,-0.0321,-0.0365,-0.0423,-0.0443,-0.0474,-0.0495,-0.0453,-0.0403,-0.0392,-0.0467,-0.0467,-0.0466,-0.0466,-0.0466,-0.0465,-0.0199,-0.0219,-0.0242,-0.0304,-0.0353,-0.0402,-0.0379,-0.0439,-0.0491,-0.0489,-0.0375,-0.0374,-0.0438,-0.0441,-0.0441,-0.044,-0.044,-0.044,-0.044,-0.0214,-0.0238,-0.0267,-0.0332,-0.0336,-0.0334,-0.0342,-0.0314,-0.0337,-0.0394,-0.0393,-0.0428,-0.0429,-0.0433,-0.0436,-0.0437,-0.0437,-0.0438,-0.0438,-0.023,-0.0253,-0.0267,-0.0269,-0.0236,-0.016,-0.0157,-0.0113,-0.0116,-0.013,-0.032,-0.0324,-0.0286,-0.029,-0.0289,-0.0254,-0.0254,-0.0254,-0.0254,-0.0237,-0.0258,-0.0217,-0.0151,-0.0071,-0.004,0.0106,0.0124,-0.0002,-0.0093,-0.01,-0.0112,-0.0123,-0.0076,-0.0085,-0.008,0.0009,0.001,0.0011,-0.0243,-0.0226,-0.0152,-0.0087,0.0032,0.0116,0.0206,0.0264,0.0145,0.0022,-0.0043,-0.0239,-0.0277,-0.0287,-0.0233,-0.0239,-0.0239,0,0]}],[{"header":{"parameterUnit":"m.s-1","parameterCategory":2,"la1":30.2992,"la2":30.254,"lo1":-89.0895,"lo2":-89.0443,"dy":0.0025,"dx":0.0025,"nx":19,"ny":19,"refTime":"2026-05-08T03:00:00:Z","depth":"4","parameterNumber":2,"parameterNumberName":"U-component_of_CURRENTS"},"data":[0,0,0,0.057,0.0572,0.0643,0.0643,0.0676,0.0676,0,0,0,0,0,0,0,0,0,0,0,0.0548,0.0549,0.057,0.0572,0.0643,0.0643,0.0676,0.0676,0,0,0,0,0,0,0,0,0,0,0,0.0548,0.0548,0.0549,0.0572,0.0643,0.0643,0.0676,0.0636,0,0,0,0,0,0,0,0,0,0,0.0574,0.0565,0.0548,0.0549,0.0572,0.0643,0.0643,0.0635,0.0639,0.0627,0,0.0645,0,0.066,0.0677,0.0677,0,0,0,0.057,0.0562,0.0579,0.0549,0.0573,0.0643,0.061,0.0637,0.0642,0.0632,0.0646,0.0647,0.066,0.0677,0.0677,0.0744,0.0744,0,0,0.0567,0.056,0.0576,0.0582,0.06,0.0608,0.0613,0.0641,0.0648,0.0646,0.0648,0.0661,0.0677,0.0677,0.0743,0.0744,0,0,0,0.0556,0.0558,0.0575,0.058,0.0597,0.061,0.0615,0.0647,0.0653,0.0649,0.0661,0.0677,0.0677,0.0743,0.0743,0.082,0,0,0,0.0554,0.0552,0.0574,0.0571,0.0597,0.0631,0.0621,0.0651,0.0655,0.0661,0.0677,0.0677,0.0742,0.0743,0.0817,0.0852,0,0,0,0.0543,0.0551,0.0561,0.057,0.0601,0.0631,0.0639,0.0652,0.0661,0.0677,0.0677,0.0741,0.0743,0.0814,0.0847,0.092,0,0,0,0.0531,0.0546,0.0561,0.0583,0.0601,0.0641,0.064,0.0671,0.0687,0.0677,0.0742,0.0743,0.0813,0.0843,0.0916,0.0723,0,0,0,0.0538,0.0547,0.0559,0.0574,0.0606,0.063,0.0684,0.0705,0.0707,0.0726,0.0729,0.0818,0.0846,0.0919,0.0812,0,0,0,0,0.0553,0.0558,0.0571,0.0597,0.0632,0.0683,0.0711,0.0741,0.08,0.0724,0.0827,0.0842,0.0886,0.0761,0.0751,0.075,0.075,0.075,0.075,0.0538,0.0559,0.0578,0.0613,0.0651,0.0724,0.0777,0.0825,0.0827,0.0879,0.0912,0.1027,0.0898,0.0917,0.0917,0.0917,0.0918,0.0918,0.0918,0.0526,0.0523,0.0577,0.0602,0.0673,0.0733,0.085,0.0894,0.1023,0.0993,0.1032,0.0858,0.0926,0.0924,0.0923,0.0922,0.0922,0.0921,0.0921,0.0484,0.0485,0.0518,0.0569,0.0659,0.0763,0.0883,0.1005,0.1085,0.115,0.1046,0.1092,0.108,0.1197,0.1198,0.1198,0.1199,0.1199,0.1199,0.0417,0.045,0.0473,0.0541,0.0606,0.0733,0.0941,0.1016,0.1138,0.1122,0.1203,0.1122,0.1113,0.1096,0.1207,0.1206,0.1205,0.1204,0.1203,0.0336,0.0364,0.0401,0.0453,0.0602,0.0693,0.0879,0.0998,0.1089,0.11,0.1097,0.11,0.1059,0.1052,0.1031,0.1127,0.1125,0.1123,0,0.0274,0.029,0.0373,0.0468,0.0566,0.0691,0.0758,0.0858,0.0981,0.0971,0.1096,0.1092,0.1093,0.1041,0.1032,0.1003,0,0,0,0.0218,0.0261,0.0325,0.0447,0.0576,0.0672,0.0784,0.0807,0.0953,0.0941,0.1072,0.1085,0.106,0.123,0.1175,0.1164,0.1135,0,0]},{"header":{"parameterUnit":"m.s-1","parameterCategory":2,"la1":30.2992,"la2":30.254,"lo1":-89.0895,"lo2":-89.0443,"dy":0.0025,"dx":0.0025,"nx":19,"ny":19,"refTime":"2026-05-08T03:00:00:Z","depth":"4","parameterNumber":3,"parameterNumberName":"V-component_of_CURRENTS"},"data":[0,0,0,-0.0194,-0.0195,-0.0262,-0.0262,-0.0361,-0.0362,0,0,0,0,0,0,0,0,0,0,0,-0.0173,-0.0174,-0.0194,-0.0195,-0.0262,-0.0262,-0.0361,-0.0362,0,0,0,0,0,0,0,0,0,0,0,-0.0173,-0.0174,-0.0174,-0.0195,-0.0262,-0.0262,-0.0361,-0.0309,0,0,0,0,0,0,0,0,0,0,-0.0243,-0.022,-0.0174,-0.0174,-0.0196,-0.0262,-0.0262,-0.0306,-0.0312,-0.0333,0,-0.0342,0,-0.0351,-0.0368,-0.0369,0,0,0,-0.0202,-0.0215,-0.0231,-0.0174,-0.0196,-0.0262,-0.0234,-0.0309,-0.0316,-0.034,-0.0343,-0.0347,-0.0353,-0.0369,-0.0369,-0.0379,-0.0379,0,0,-0.0198,-0.0189,-0.0227,-0.0235,-0.0213,-0.0232,-0.0236,-0.0313,-0.0321,-0.0343,-0.0349,-0.0354,-0.037,-0.037,-0.038,-0.0379,0,0,0,-0.0183,-0.0187,-0.0201,-0.0231,-0.0241,-0.0233,-0.0238,-0.0318,-0.0322,-0.035,-0.0355,-0.037,-0.0371,-0.0381,-0.038,-0.016,0,0,0,-0.0181,-0.0177,-0.0199,-0.0195,-0.0239,-0.0278,-0.0241,-0.0317,-0.0326,-0.0355,-0.037,-0.0372,-0.0381,-0.038,-0.0167,-0.0088,0,0,0,-0.017,-0.0176,-0.0183,-0.0194,-0.022,-0.0277,-0.0286,-0.0319,-0.0329,-0.0369,-0.0372,-0.0382,-0.038,-0.0174,-0.0099,-0.0125,0,0,0,-0.016,-0.0163,-0.0183,-0.0185,-0.0219,-0.0225,-0.0286,-0.0318,-0.035,-0.0371,-0.0381,-0.038,-0.0176,-0.0106,-0.013,-0.0245,0,0,0,-0.0154,-0.0162,-0.016,-0.0179,-0.0135,-0.0217,-0.0158,-0.0238,-0.0331,-0.036,-0.036,-0.0165,-0.01,-0.0126,-0.0162,0,0,0,0,-0.0151,-0.0119,-0.0124,-0.0098,-0.0131,-0.007,-0.0158,-0.017,-0.0184,-0.0341,-0.0198,-0.0166,-0.0189,-0.0272,-0.0373,-0.0373,-0.0373,-0.0373,-0.0373,-0.0084,-0.007,-0.0005,0.0033,0.0035,0.0025,0.0061,0.0032,-0.0092,-0.0059,-0.0009,0.009,0.0014,-0.0032,-0.003,-0.0029,-0.0029,-0.0028,-0.0028,0.0041,0.0112,0.0155,0.023,0.0271,0.0316,0.032,0.0273,0.0263,0.0169,0.0135,-0.006,-0.0007,-0.0011,-0.0014,-0.0016,-0.0018,-0.0019,-0.002,0.0147,0.0192,0.0243,0.0378,0.049,0.0497,0.0534,0.051,0.0438,0.0456,0.0201,0.0185,0.0185,0.037,0.037,0.037,0.0371,0.0371,0.0371,0.0234,0.0296,0.0384,0.052,0.0568,0.062,0.062,0.0575,0.0503,0.0404,0.0444,0.0221,0.0208,0.0202,0.0376,0.0375,0.0374,0.0374,0.0374,0.0363,0.0352,0.0464,0.0515,0.0603,0.061,0.0626,0.0516,0.0449,0.0383,0.0342,0.0342,0.0218,0.0204,0.0193,0.0371,0.0371,0.037,0,0.0404,0.0429,0.0473,0.0497,0.052,0.0564,0.0453,0.0408,0.0362,0.0347,0.0424,0.0381,0.0378,0.0238,0.0223,0.0211,0,0,0,0.0461,0.045,0.044,0.0447,0.0444,0.04,0.0406,0.0355,0.04,0.0323,0.0348,0.0353,0.0358,0.039,0.0197,0.0182,0.016,0,0]}]]